Weather History for Muskogee, OK

Change the Weather History Date:

Saturday, September 29, 2012

  Actual Average Record
Temperature  
Mean Temperature 68 °F -  
Max Temperature 73 °F 79 °F 91 °F (1998)
Min Temperature 64 °F 53 °F 43 °F (2003)
Cooling Degree Days 4    
Growing Degree Days 18 (Base 50)    
Moisture  
Dew Point 68 °F    
Average Humidity 97    
Maximum Humidity 100    
Minimum Humidity 83    
Precipitation  
Precipitation 2.50 in - - ()
Sea Level Pressure  
Sea Level Pressure 30.01 in    
Wind  
Wind Speed 4 mph (ENE)    
Max Wind Speed 13 mph    
Max Gust Speed 18 mph    
Visibility 6 miles    
Events Rain , Thunderstorm    
Averages and records for this station are not official NWS values.
T = Trace of Precipitation, MM = Missing Value Source: NWS Daily Summary

Daily Weather History Graph

Daily Weather History Graph

Search for Another Location

Airport:

Trip Planner

Search our weather history database for the weather conditions in past years. The results will help you decide how hot, cold, wet, or windy it might be!

Date:

Astronomy

Sep. 29, 2012 Rise Set
Actual Time 7:15 AM CDT 7:07 PM CDT
Civil Twilight 6:49 AM CDT 7:32 PM CDT
Nautical Twilight 6:20 AM CDT 8:02 PM CDT
Astronomical Twilight 5:50 AM CDT 8:32 PM CDT
Moon 6:42 PM CDT (9/29) 6:46 AM CDT (9/29)
Length of Visible Light 12h 42m
Length of Day
11h 52m
Full, 100% of the Moon is Illuminated
Sep 29
Full
Sep 29
Full
Oct 8
Last Quarter
Oct 15
New
Oct 21
First Quarter

Hourly Weather History & Observations

Time (CDT) Temp. Dew Point Humidity Pressure Visibility Wind Dir Wind Speed Gust Speed Precip Events Conditions
12:53 AM 70.0 °F 66.9 °F 90% 30.03 in 10.0 mi Calm Calm - N/A   Partly Cloudy
1:53 AM 69.1 °F 68.0 °F 96% 30.03 in 9.0 mi NNW 3.5 mph - N/A   Mostly Cloudy
2:53 AM 70.0 °F 68.0 °F 93% 30.03 in 10.0 mi North 3.5 mph - N/A   Mostly Cloudy
3:53 AM 69.1 °F 69.1 °F 100% 30.02 in 9.0 mi NNE 3.5 mph - N/A   Mostly Cloudy
4:15 AM 69.8 °F 69.8 °F 100% 30.03 in 9.0 mi NE 3.5 mph - N/A   Mostly Cloudy
4:53 AM 70.0 °F 69.1 °F 97% 30.01 in 9.0 mi Calm Calm - N/A   Overcast
5:30 AM 69.8 °F 68.0 °F 94% 30.02 in 10.0 mi NE 8.1 mph - N/A Thunderstorm Overcast
5:45 AM 69.8 °F 69.8 °F 100% 30.02 in 3.0 mi NNE 11.5 mph 18.4 mph 0.09 in Rain Heavy Rain
5:50 AM 68.0 °F 68.0 °F 100% 30.02 in 2.0 mi NE 8.1 mph - 0.14 in Rain Heavy Rain
5:53 AM 68.0 °F 68.0 °F 100% 30.01 in 1.8 mi ENE 8.1 mph - 0.24 in Rain Heavy Rain
5:59 AM 68.0 °F 68.0 °F 100% 30.03 in 0.8 mi NNE 12.7 mph - 0.43 in Rain Heavy Rain
6:06 AM 66.2 °F 66.2 °F 100% 30.03 in 0.8 mi NE 12.7 mph - 0.62 in Rain , Thunderstorm Heavy Thunderstorms and Rain
6:15 AM 66.2 °F 66.2 °F 100% 30.04 in 1.0 mi Calm Calm - 0.84 in Rain , Thunderstorm Heavy Thunderstorms and Rain
6:35 AM 66.2 °F 66.2 °F 100% 30.03 in 1.5 mi South 5.8 mph - 1.28 in Rain Heavy Rain
6:39 AM 66.2 °F 66.2 °F 100% 30.03 in 2.0 mi South 3.5 mph - 1.30 in Rain Heavy Rain
6:53 AM 66.0 °F 66.0 °F 100% 30.01 in 2.0 mi NW 3.5 mph - 1.40 in Rain Heavy Rain
7:02 AM 66.2 °F 66.2 °F 100% 30.04 in 4.0 mi Calm Calm - 0.01 in Rain , Thunderstorm Light Thunderstorms and Rain
7:35 AM 64.4 °F 64.4 °F 100% 30.05 in 4.0 mi Calm Calm - 0.09 in Rain Rain
7:42 AM 64.4 °F 64.4 °F 100% 30.04 in 2.5 mi Calm Calm - 0.12 in Rain Rain
7:53 AM 64.9 °F 64.9 °F 100% 30.03 in 4.0 mi NNW 3.5 mph - 0.15 in Rain Rain
8:06 AM 64.4 °F 64.4 °F 100% 30.06 in 4.0 mi Calm Calm - 0.04 in Rain Rain
8:22 AM 66.2 °F 66.2 °F 100% 30.06 in 4.0 mi Calm Calm - 0.07 in Rain Rain
8:33 AM 66.2 °F 66.2 °F 100% 30.06 in 2.5 mi ESE 4.6 mph - 0.11 in Rain Heavy Rain
8:41 AM 66.2 °F 66.2 °F 100% 30.06 in 2.5 mi ESE 5.8 mph - 0.14 in Rain Rain
8:50 AM 66.2 °F 66.2 °F 100% 30.06 in 4.0 mi SE 4.6 mph - 0.16 in Rain Rain
8:53 AM 66.0 °F 66.0 °F 100% 30.04 in 4.0 mi SE 4.6 mph - 0.17 in Rain Rain
9:23 AM 66.2 °F 66.2 °F 100% 30.06 in 4.0 mi Calm Calm - 0.04 in Rain Light Rain
9:40 AM 66.2 °F 66.2 °F 100% 30.06 in 8.0 mi Calm Calm - 0.05 in Rain Light Rain
9:53 AM 68.0 °F 68.0 °F 100% 30.05 in 7.0 mi Calm Calm - 0.05 in Rain Light Rain
10:15 AM 69.8 °F 68.0 °F 94% 30.06 in 9.0 mi NE 3.5 mph - 0.01 in Rain Light Rain
10:25 AM 69.8 °F 69.8 °F 100% 30.06 in 9.0 mi NNE 3.5 mph - 0.01 in Rain Light Rain
10:33 AM 69.8 °F 69.8 °F 100% 30.06 in 9.0 mi NNE 4.6 mph - 0.01 in Rain Light Rain
10:53 AM 70.0 °F 69.1 °F 97% 30.04 in 10.0 mi ENE 4.6 mph - 0.01 in   Overcast
11:53 AM 71.1 °F 70.0 °F 96% 30.04 in 10.0 mi East 6.9 mph - N/A   Overcast
12:08 PM 71.6 °F 69.8 °F 94% 30.05 in 10.0 mi ESE 6.9 mph - N/A   Overcast
12:18 PM 71.6 °F 69.8 °F 94% 30.05 in 9.0 mi ESE 8.1 mph - 0.00 in Rain Light Rain
12:53 PM 71.1 °F 70.0 °F 96% 30.03 in 9.0 mi East 5.8 mph - 0.00 in Rain Light Rain
1:10 PM 71.6 °F 69.8 °F 94% 30.03 in 10.0 mi East 8.1 mph - 0.00 in   Mostly Cloudy
1:53 PM 73.0 °F 69.1 °F 87% 30.00 in 10.0 mi ESE 8.1 mph - 0.00 in   Overcast
2:16 PM 73.4 °F 69.8 °F 88% 30.00 in 10.0 mi ESE 5.8 mph - N/A   Mostly Cloudy
2:26 PM 73.4 °F 68.0 °F 83% 30.00 in 10.0 mi SE 5.8 mph - N/A   Mostly Cloudy
2:53 PM 73.0 °F 68.0 °F 84% 29.97 in 9.0 mi ESE 8.1 mph - N/A   Mostly Cloudy
3:16 PM 73.4 °F 68.0 °F 83% 29.99 in 8.0 mi ESE 6.9 mph - 0.00 in Rain Light Rain
3:53 PM 72.0 °F 68.0 °F 87% 29.96 in 8.0 mi ESE 6.9 mph - 0.00 in   Overcast
4:34 PM 71.6 °F 68.0 °F 88% 29.97 in 5.0 mi East 6.9 mph - N/A   Overcast
4:46 PM 71.6 °F 68.0 °F 88% 29.97 in 7.0 mi East 6.9 mph - N/A   Overcast
5:12 PM 69.8 °F 69.8 °F 100% 29.98 in 3.0 mi NE 6.9 mph - 0.01 in Rain Light Rain
5:31 PM 69.8 °F 69.8 °F 100% 29.98 in 2.5 mi NE 6.9 mph - 0.03 in Rain Light Rain
5:53 PM 68.0 °F 68.0 °F 100% 29.96 in 1.8 mi ENE 8.1 mph - 0.11 in Rain Rain
6:03 PM 68.0 °F 68.0 °F 100% 29.98 in 2.0 mi NE 4.6 mph - 0.04 in Rain Heavy Rain
6:23 PM 68.0 °F 68.0 °F 100% 29.97 in 4.0 mi North 4.6 mph - 0.07 in Rain Light Rain
6:53 PM 68.0 °F 68.0 °F 100% 29.96 in 3.0 mi North 4.6 mph - 0.08 in Rain Light Rain
7:53 PM 68.0 °F 68.0 °F 100% 29.96 in 4.0 mi North 3.5 mph - 0.00 in   Overcast
8:37 PM 68.0 °F 68.0 °F 100% 29.98 in 4.0 mi Calm Calm - 0.00 in Rain Light Rain
8:53 PM 68.0 °F 68.0 °F 100% 29.97 in 5.0 mi North 4.6 mph - 0.00 in   Overcast
9:03 PM 68.0 °F 68.0 °F 100% 29.99 in 2.5 mi NE 6.9 mph - 0.04 in Rain Heavy Rain
9:12 PM 66.2 °F 66.2 °F 100% 29.98 in 1.8 mi NNE 9.2 mph - 0.13 in Rain Heavy Rain
9:16 PM 66.2 °F 66.2 °F 100% 29.99 in 3.0 mi NNE 9.2 mph - 0.14 in Rain Rain
9:31 PM 66.2 °F 66.2 °F 100% 29.99 in 3.0 mi NNE 6.9 mph - 0.18 in Rain Rain
9:42 PM 66.2 °F 66.2 °F 100% 29.99 in 2.0 mi NE 8.1 mph - 0.25 in Rain Heavy Rain
9:53 PM 66.9 °F 66.9 °F 100% 29.98 in 3.0 mi NE 5.8 mph - 0.28 in Rain Light Rain
10:53 PM 66.9 °F 66.9 °F 100% 29.97 in 7.0 mi North 3.5 mph - 0.00 in Rain Light Rain
11:53 PM 68.0 °F 68.0 °F 100% 29.97 in 9.0 mi North 3.5 mph - 0.01 in   Overcast